QPF
0.00 0.01 0.01 0.02 0.01 0.00 0.00 0.00 0.00 0.00 0.00 0.00 0.00 0.00 0.00 0.00 0.01 0.08 0.17 0.20 0.27 0.24 0.19 0.11 0.06 0.05 0.06 0.04 0.03 0.03 0.03 0.03 0.02 0.03 0.06 0.06 0.06 0.04 0.00 0.01 0.02 0.02 0.01
0.00 0.00 0.02 0.02 0.01 0.00 0.00 0.00 0.00 0.00 0.00 0.00 0.00 0.00 0.00 0.00 0.00 0.02 0.10 0.20 0.26 0.20 0.22 0.21 0.14 0.10 0.07 0.05 0.05 0.05 0.06 0.05 0.03 0.03 0.04 0.04 0.04 0.02 0.00 0.01 0.02 0.03 0.03
0.00 0.00 0.02 0.02 0.01 0.00 0.00 0.00 0.00 0.00 0.00 0.00 0.00 0.00 0.00 0.00 0.00 0.00 0.00 0.02 0.05 0.05 0.06 0.11 0.13 0.11 0.08 0.07 0.08 0.04 0.03 0.04 0.04 0.04 0.03 0.03 0.02 0.01 0.00 0.01 0.02 0.03 0.02
0.00 0.00 0.00 0.02 0.02 0.00 0.00 0.01 0.00 0.01 0.00 0.00 0.00 0.00 0.00 0.00 0.00 0.00 0.00 0.00 0.00 0.00 0.01 0.01 0.03 0.06 0.12 0.15 0.15 0.07 0.03 0.02 0.02 0.02 0.03 0.03 0.01 0.01 0.01 0.03 0.02 0.03 0.01
0.02 0.01 0.01 0.01 0.02 0.02 0.03 0.03 0.03 0.01 0.01 0.01 0.00 0.00 0.00 0.00 0.00 0.00 0.00 0.00 0.00 0.00 0.00 0.00 0.00 0.00 0.01 0.05 0.11 0.11 0.04 0.01 0.01 0.01 0.01 0.02 0.02 0.02 0.03 0.04 0.01 0.00 0.00
0.11 0.05 0.02 0.02 0.02 0.07 0.11 0.09 0.08 0.05 0.03 0.02 0.00 0.00 0.00 0.00 0.00 0.00 0.00 0.00 0.00 0.00 0.00 0.00 0.00 0.00 0.00 0.00 0.01 0.01 0.01 0.01 0.00 0.00 0.01 0.01 0.01 0.01 0.02 0.03 0.00 0.00 0.00
0.14 0.11 0.03 0.02 0.02 0.05 0.12 0.17 0.16 0.14 0.05 0.01 0.00 0.00 0.00 0.00 0.00 0.00 0.00 0.00 0.00 0.00 0.00 0.00 0.00 0.00 0.00 0.00 0.00 0.00 0.00 0.01 0.01 0.01 0.00 0.00 0.00 0.00 0.01 0.03 0.01 0.00 0.00
0.10 0.10 0.08 0.05 0.04 0.06 0.13 0.13 0.10 0.15 0.08 0.02 0.00 0.01 0.01 0.00 0.00 0.00 0.00 0.00 0.00 0.00 0.00 0.00 0.00 0.00 0.00 0.00 0.00 0.00 0.00 0.00 0.01 0.01 0.01 0.01 0.00 0.00 0.00 0.02 0.02 0.01 0.00
0.24 0.20 0.14 0.12 0.10 0.05 0.08 0.09 0.06 0.11 0.08 0.02 0.00 0.01 0.02 0.02 0.00 0.00 0.00 0.00 0.00 0.00 0.00 0.00 0.00 0.00 0.00 0.00 0.00 0.00 0.00 0.00 0.01 0.02 0.02 0.01 0.01 0.01 0.00 0.00 0.02 0.02 0.02
0.24 0.27 0.19 0.13 0.12 0.07 0.05 0.07 0.05 0.05 0.06 0.02 0.00 0.00 0.00 0.01 0.00 0.00 0.00 0.00 0.00 0.00 0.00 0.00 0.00 0.00 0.00 0.00 0.00 0.00 0.00 0.00 0.01 0.02 0.04 0.03 0.01 0.01 0.01 0.00 0.00 0.02 0.03
0.07 0.10 0.11 0.11 0.10 0.08 0.05 0.06 0.06 0.08 0.05 0.03 0.01 0.00 0.00 0.00 0.00 0.00 0.01 0.00 0.00 0.00 0.00 0.00 0.00 0.00 0.00 0.00 0.00 0.00 0.00 0.00 0.00 0.00 0.01 0.01 0.01 0.01 0.02 0.02 0.01 0.01 0.01
0.02 0.02 0.04 0.11 0.15 0.14 0.12 0.10 0.08 0.11 0.09 0.07 0.04 0.01 0.01 0.00 0.00 0.00 0.01 0.01 0.01 0.00 0.00 0.00 0.00 0.00 0.00 0.00 0.00 0.00 0.00 0.00 0.00 0.00 0.00 0.00 0.00 0.01 0.03 0.04 0.04 0.03 0.02
0.01 0.01 0.03 0.08 0.17 0.21 0.21 0.17 0.16 0.13 0.08 0.09 0.08 0.04 0.01 0.01 0.00 0.00 0.00 0.00 0.01 0.00 0.00 0.00 0.00 0.00 0.00 0.00 0.00 0.00 0.00 0.00 0.00 0.00 0.00 0.00 0.00 0.00 0.01 0.02 0.03 0.03 0.03
0.02 0.03 0.05 0.09 0.21 0.33 0.34 0.26 0.20 0.15 0.08 0.09 0.08 0.04 0.04 0.02 0.00 0.00 0.00 0.01 0.02 0.01 0.00 0.00 0.00 0.00 0.00 0.00 0.00 0.00 0.00 0.00 0.00 0.00 0.00 0.00 0.00 0.00 0.00 0.00 0.00 0.00 0.00
0.02 0.03 0.05 0.09 0.16 0.30 0.42 0.41 0.28 0.17 0.10 0.08 0.06 0.04 0.05 0.04 0.01 0.00 0.00 0.01 0.03 0.04 0.03 0.01 0.00 0.00 0.00 0.00 0.00 0.00 0.00 0.00 0.00 0.00 0.00 0.00 0.00 0.00 0.00 0.00 0.00 0.00 0.00
0.02 0.02 0.03 0.07 0.13 0.24 0.39 0.48 0.43 0.28 0.14 0.07 0.05 0.06 0.07 0.06 0.04 0.02 0.01 0.00 0.01 0.03 0.06 0.02 0.00 0.00 0.00 0.00 0.00 0.00 0.00 0.00 0.00 0.00 0.00 0.00 0.00 0.00 0.00 0.00 0.00 0.00 0.00
0.02 0.02 0.04 0.04 0.08 0.15 0.28 0.46 0.51 0.40 0.23 0.12 0.06 0.06 0.06 0.03 0.03 0.03 0.02 0.01 0.01 0.02 0.06 0.04 0.00 0.00 0.00 0.00 0.00 0.00 0.00 0.00 0.00 0.00 0.00 0.00 0.00 0.00 0.00 0.00 0.00 0.00 0.00
0.01 0.02 0.03 0.03 0.05 0.08 0.14 0.25 0.37 0.40 0.31 0.19 0.11 0.09 0.09 0.06 0.04 0.02 0.02 0.03 0.05 0.06 0.07 0.08 0.01 0.01 0.00 0.00 0.00 0.00 0.00 0.00 0.00 0.00 0.00 0.00 0.00 0.00 0.00 0.00 0.00 0.00 0.00
0.00 0.01 0.02 0.03 0.05 0.06 0.07 0.12 0.17 0.22 0.24 0.19 0.11 0.08 0.06 0.05 0.07 0.05 0.04 0.07 0.12 0.09 0.08 0.09 0.03 0.01 0.01 0.00 0.00 0.00 0.00 0.00 0.00 0.00 0.00 0.00 0.00 0.00 0.00 0.00 0.00 0.00 0.00
0.00 0.00 0.01 0.04 0.07 0.07 0.06 0.07 0.10 0.11 0.10 0.08 0.08 0.07 0.04 0.04 0.05 0.03 0.03 0.08 0.14 0.12 0.08 0.08 0.03 0.02 0.03 0.01 0.00 0.00 0.00 0.00 0.00 0.00 0.00 0.00 0.00 0.00 0.00 0.00 0.00 0.00 0.00
0.01 0.01 0.01 0.01 0.01 0.03 0.03 0.04 0.06 0.06 0.05 0.03 0.03 0.03 0.03 0.03 0.05 0.03 0.02 0.05 0.10 0.08 0.05 0.04 0.04 0.03 0.02 0.01 0.00 0.00 0.00 0.00 0.00 0.00 0.00 0.00 0.00 0.00 0.00 0.00 0.00 0.00 0.00
0.03 0.05 0.04 0.02 0.01 0.01 0.02 0.02 0.04 0.04 0.04 0.03 0.03 0.02 0.01 0.02 0.04 0.03 0.02 0.03 0.06 0.07 0.07 0.07 0.06 0.05 0.03 0.01 0.01 0.00 0.00 0.00 0.00 0.00 0.00 0.00 0.00 0.00 0.00 0.00 0.00 0.00 0.00
0.03 0.03 0.04 0.04 0.02 0.01 0.01 0.01 0.02 0.03 0.04 0.03 0.03 0.04 0.03 0.01 0.02 0.03 0.05 0.04 0.03 0.03 0.05 0.09 0.09 0.11 0.09 0.04 0.01 0.00 0.00 0.00 0.00 0.00 0.00 0.00 0.00 0.00 0.00 0.00 0.00 0.01 0.00
0.14 0.11 0.10 0.10 0.05 0.03 0.02 0.00 0.00 0.01 0.03 0.03 0.03 0.04 0.04 0.02 0.01 0.03 0.04 0.05 0.04 0.04 0.06 0.06 0.10 0.19 0.14 0.05 0.01 0.00 0.00 0.00 0.00 0.00 0.00 0.00 0.00 0.00 0.00 0.00 0.00 0.00 0.00
0.17 0.15 0.15 0.12 0.08 0.07 0.04 0.01 0.00 0.01 0.02 0.02 0.02 0.02 0.02 0.02 0.01 0.01 0.04 0.11 0.13 0.11 0.15 0.13 0.11 0.11 0.08 0.03 0.01 0.00 0.00 0.00 0.00 0.00 0.00 0.00 0.00 0.00 0.00 0.00 0.00 0.00 0.00
0.09 0.11 0.12 0.13 0.11 0.09 0.07 0.02 0.01 0.01 0.01 0.01 0.01 0.01 0.01 0.01 0.00 0.00 0.04 0.10 0.08 0.09 0.14 0.14 0.09 0.07 0.06 0.03 0.01 0.00 0.00 0.00 0.00 0.00 0.00 0.00 0.00 0.00 0.00 0.00 0.00 0.00 0.00
MSLP
1014.03 1014.24 1014.45 1014.67 1014.88 1015.09 1015.28 1015.44 1015.54 1015.58 1015.56 1015.48 1015.39 1015.29 1015.24 1015.23 1015.29 1015.41 1015.56 1015.74 1015.90 1016.03 1016.11 1016.14 1016.12 1016.04 1015.93 1015.79 1015.66 1015.54 1015.45 1015.42 1015.46 1015.55 1015.69 1015.85 1015.99 1016.06 1016.04 1015.90 1015.66 1015.36 1015.06
1013.86 1014.10 1014.35 1014.59 1014.84 1015.09 1015.32 1015.52 1015.68 1015.77 1015.81 1015.80 1015.76 1015.72 1015.70 1015.70 1015.75 1015.83 1015.94 1016.07 1016.18 1016.28 1016.35 1016.39 1016.38 1016.33 1016.25 1016.13 1015.99 1015.86 1015.75 1015.67 1015.66 1015.72 1015.83 1015.96 1016.08 1016.16 1016.14 1016.02 1015.80 1015.52 1015.23
1013.72 1014.00 1014.28 1014.57 1014.87 1015.16 1015.43 1015.68 1015.88 1016.04 1016.14 1016.21 1016.24 1016.25 1016.26 1016.27 1016.30 1016.34 1016.38 1016.44 1016.50 1016.55 1016.60 1016.63 1016.65 1016.64 1016.59 1016.50 1016.38 1016.24 1016.10 1015.98 1015.92 1015.91 1015.97 1016.06 1016.16 1016.22 1016.21 1016.10 1015.90 1015.65 1015.38
1013.59 1013.91 1014.24 1014.58 1014.92 1015.25 1015.57 1015.86 1016.11 1016.32 1016.49 1016.63 1016.73 1016.80 1016.85 1016.87 1016.88 1016.87 1016.85 1016.84 1016.83 1016.83 1016.85 1016.89 1016.93 1016.95 1016.94 1016.89 1016.79 1016.65 1016.48 1016.31 1016.19 1016.11 1016.10 1016.14 1016.20 1016.24 1016.23 1016.14 1015.97 1015.75 1015.51
1013.47 1013.82 1014.19 1014.57 1014.95 1015.32 1015.66 1015.98 1016.27 1016.53 1016.76 1016.96 1017.13 1017.26 1017.36 1017.41 1017.41 1017.37 1017.31 1017.23 1017.16 1017.12 1017.12 1017.15 1017.20 1017.26 1017.29 1017.27 1017.19 1017.05 1016.86 1016.65 1016.46 1016.31 1016.23 1016.21 1016.22 1016.24 1016.23 1016.16 1016.02 1015.82 1015.61
1013.32 1013.70 1014.11 1014.52 1014.92 1015.30 1015.66 1015.99 1016.29 1016.58 1016.85 1017.11 1017.34 1017.55 1017.70 1017.79 1017.82 1017.78 1017.70 1017.58 1017.48 1017.40 1017.38 1017.40 1017.47 1017.56 1017.62 1017.63 1017.57 1017.43 1017.22 1016.97 1016.72 1016.51 1016.36 1016.28 1016.25 1016.24 1016.23 1016.17 1016.05 1015.89 1015.69
1013.15 1013.54 1013.97 1014.40 1014.81 1015.18 1015.53 1015.85 1016.14 1016.44 1016.73 1017.03 1017.33 1017.60 1017.82 1017.98 1018.06 1018.05 1017.97 1017.86 1017.74 1017.66 1017.62 1017.65 1017.73 1017.84 1017.93 1017.96 1017.92 1017.78 1017.56 1017.28 1016.99 1016.72 1016.52 1016.38 1016.31 1016.28 1016.26 1016.21 1016.11 1015.97 1015.79
1012.95 1013.35 1013.78 1014.21 1014.61 1014.96 1015.28 1015.56 1015.83 1016.10 1016.40 1016.73 1017.07 1017.41 1017.71 1017.94 1018.09 1018.14 1018.11 1018.03 1017.93 1017.85 1017.83 1017.87 1017.96 1018.08 1018.19 1018.25 1018.23 1018.10 1017.88 1017.60 1017.28 1016.98 1016.73 1016.56 1016.45 1016.40 1016.36 1016.31 1016.23 1016.09 1015.91
1012.73 1013.14 1013.57 1013.98 1014.35 1014.67 1014.94 1015.17 1015.39 1015.64 1015.92 1016.25 1016.62 1017.01 1017.38 1017.69 1017.93 1018.06 1018.10 1018.07 1018.02 1017.97 1017.97 1018.03 1018.14 1018.28 1018.41 1018.50 1018.50 1018.40 1018.20 1017.93 1017.61 1017.30 1017.03 1016.83 1016.69 1016.61 1016.56 1016.50 1016.42 1016.28 1016.10
1012.53 1012.93 1013.35 1013.74 1014.08 1014.36 1014.58 1014.75 1014.92 1015.12 1015.37 1015.69 1016.07 1016.49 1016.91 1017.30 1017.60 1017.82 1017.94 1017.98 1017.98 1017.98 1018.02 1018.10 1018.23 1018.40 1018.56 1018.68 1018.73 1018.67 1018.51 1018.27 1017.98 1017.68 1017.41 1017.20 1017.04 1016.94 1016.86 1016.78 1016.68 1016.53 1016.34
1012.36 1012.76 1013.16 1013.53 1013.84 1014.08 1014.25 1014.38 1014.49 1014.64 1014.85 1015.14 1015.51 1015.94 1016.39 1016.82 1017.18 1017.46 1017.65 1017.76 1017.82 1017.87 1017.95 1018.06 1018.23 1018.43 1018.63 1018.79 1018.88 1018.89 1018.79 1018.61 1018.38 1018.12 1017.86 1017.65 1017.48 1017.35 1017.24 1017.14 1017.01 1016.84 1016.64
1012.22 1012.61 1013.00 1013.36 1013.65 1013.86 1014.00 1014.09 1014.17 1014.27 1014.44 1014.69 1015.04 1015.45 1015.89 1016.33 1016.72 1017.04 1017.28 1017.44 1017.55 1017.65 1017.76 1017.91 1018.11 1018.34 1018.58 1018.80 1018.96 1019.04 1019.02 1018.93 1018.76 1018.56 1018.34 1018.14 1017.96 1017.81 1017.67 1017.53 1017.37 1017.19 1016.97
1012.10 1012.48 1012.87 1013.22 1013.50 1013.71 1013.84 1013.91 1013.97 1014.04 1014.18 1014.39 1014.69 1015.06 1015.48 1015.89 1016.28 1016.60 1016.85 1017.04 1017.18 1017.31 1017.46 1017.64 1017.87 1018.14 1018.43 1018.70 1018.93 1019.10 1019.18 1019.17 1019.10 1018.97 1018.80 1018.63 1018.45 1018.28 1018.11 1017.93 1017.74 1017.53 1017.30
1011.99 1012.36 1012.73 1013.08 1013.37 1013.59 1013.74 1013.83 1013.89 1013.96 1014.07 1014.25 1014.50 1014.82 1015.17 1015.53 1015.88 1016.17 1016.41 1016.60 1016.75 1016.90 1017.08 1017.28 1017.55 1017.85 1018.18 1018.51 1018.81 1019.06 1019.23 1019.33 1019.35 1019.30 1019.20 1019.06 1018.89 1018.71 1018.52 1018.30 1018.08 1017.85 1017.62
1011.84 1012.20 1012.56 1012.92 1013.23 1013.48 1013.67 1013.79 1013.89 1013.97 1014.08 1014.23 1014.43 1014.68 1014.97 1015.26 1015.54 1015.78 1015.98 1016.15 1016.31 1016.46 1016.65 1016.88 1017.16 1017.50 1017.87 1018.24 1018.60 1018.92 1019.18 1019.37 1019.48 1019.51 1019.48 1019.40 1019.26 1019.08 1018.87 1018.64 1018.39 1018.15 1017.90
1011.64 1011.97 1012.34 1012.70 1013.04 1013.33 1013.57 1013.76 1013.90 1014.02 1014.14 1014.28 1014.44 1014.63 1014.84 1015.05 1015.25 1015.43 1015.58 1015.73 1015.87 1016.02 1016.22 1016.46 1016.77 1017.12 1017.51 1017.92 1018.33 1018.70 1019.03 1019.29 1019.49 1019.60 1019.64 1019.61 1019.51 1019.36 1019.16 1018.93 1018.67 1018.42 1018.17
1011.37 1011.68 1012.03 1012.40 1012.77 1013.12 1013.42 1013.67 1013.87 1014.04 1014.18 1014.31 1014.44 1014.58 1014.72 1014.85 1014.98 1015.10 1015.21 1015.32 1015.45 1015.61 1015.81 1016.07 1016.38 1016.75 1017.15 1017.58 1018.00 1018.41 1018.78 1019.10 1019.35 1019.54 1019.65 1019.68 1019.65 1019.54 1019.38 1019.17 1018.93 1018.67 1018.43
1011.02 1011.31 1011.65 1012.03 1012.43 1012.82 1013.18 1013.49 1013.75 1013.96 1014.13 1014.27 1014.38 1014.47 1014.55 1014.62 1014.69 1014.76 1014.83 1014.93 1015.05 1015.22 1015.43 1015.70 1016.02 1016.39 1016.79 1017.21 1017.64 1018.05 1018.44 1018.78 1019.08 1019.32 1019.50 1019.61 1019.65 1019.62 1019.52 1019.36 1019.15 1018.93 1018.71
1010.63 1010.90 1011.23 1011.62 1012.03 1012.45 1012.85 1013.21 1013.52 1013.76 1013.95 1014.09 1014.18 1014.24 1014.28 1014.31 1014.33 1014.37 1014.43 1014.51 1014.64 1014.82 1015.05 1015.33 1015.66 1016.03 1016.42 1016.82 1017.23 1017.62 1018.00 1018.36 1018.68 1018.97 1019.21 1019.39 1019.51 1019.57 1019.56 1019.48 1019.34 1019.18 1018.99
1010.23 1010.48 1010.80 1011.18 1011.60 1012.03 1012.45 1012.83 1013.16 1013.42 1013.62 1013.75 1013.83 1013.87 1013.88 1013.88 1013.88 1013.91 1013.96 1014.06 1014.20 1014.40 1014.65 1014.95 1015.28 1015.64 1016.01 1016.39 1016.76 1017.12 1017.48 1017.82 1018.15 1018.47 1018.76 1019.02 1019.23 1019.39 1019.48 1019.51 1019.47 1019.38 1019.26
1009.85 1010.09 1010.39 1010.76 1011.16 1011.58 1012.00 1012.37 1012.70 1012.96 1013.15 1013.27 1013.34 1013.36 1013.36 1013.34 1013.34 1013.36 1013.43 1013.54 1013.71 1013.93 1014.21 1014.52 1014.85 1015.20 1015.55 1015.89 1016.23 1016.55 1016.87 1017.19 1017.52 1017.85 1018.18 1018.50 1018.80 1019.06 1019.27 1019.42 1019.50 1019.52 1019.48
1009.53 1009.76 1010.04 1010.38 1010.76 1011.15 1011.52 1011.87 1012.17 1012.40 1012.57 1012.68 1012.73 1012.75 1012.74 1012.73 1012.74 1012.77 1012.85 1012.99 1013.18 1013.43 1013.71 1014.03 1014.37 1014.71 1015.03 1015.34 1015.64 1015.92 1016.20 1016.49 1016.80 1017.13 1017.49 1017.86 1018.24 1018.59 1018.92 1019.19 1019.39 1019.53 1019.60
1009.30 1009.51 1009.78 1010.08 1010.41 1010.75 1011.07 1011.36 1011.61 1011.81 1011.95 1012.04 1012.08 1012.10 1012.10 1012.11 1012.13 1012.19 1012.29 1012.45 1012.66 1012.91 1013.21 1013.53 1013.86 1014.18 1014.49 1014.77 1015.03 1015.28 1015.52 1015.78 1016.06 1016.39 1016.75 1017.15 1017.58 1018.01 1018.42 1018.80 1019.13 1019.39 1019.57
1009.16 1009.37 1009.60 1009.86 1010.13 1010.40 1010.66 1010.89 1011.08 1011.23 1011.34 1011.42 1011.47 1011.50 1011.52 1011.56 1011.61 1011.69 1011.82 1011.99 1012.21 1012.47 1012.76 1013.07 1013.38 1013.68 1013.97 1014.22 1014.46 1014.67 1014.89 1015.11 1015.37 1015.67 1016.03 1016.43 1016.88 1017.35 1017.83 1018.29 1018.70 1019.07 1019.36
1009.13 1009.32 1009.52 1009.73 1009.94 1010.14 1010.32 1010.48 1010.62 1010.73 1010.82 1010.90 1010.96 1011.02 1011.08 1011.15 1011.24 1011.36 1011.51 1011.69 1011.90 1012.15 1012.42 1012.71 1013.00 1013.27 1013.53 1013.77 1013.98 1014.17 1014.36 1014.56 1014.79 1015.06 1015.39 1015.77 1016.20 1016.68 1017.18 1017.67 1018.15 1018.59 1018.96
1009.19 1009.36 1009.53 1009.69 1009.83 1009.96 1010.07 1010.17 1010.26 1010.34 1010.43 1010.51 1010.61 1010.71 1010.82 1010.94 1011.08 1011.23 1011.39 1011.58 1011.78 1012.01 1012.25 1012.50 1012.76 1013.01 1013.24 1013.45 1013.64 1013.82 1013.99 1014.17 1014.37 1014.60 1014.88 1015.22 1015.61 1016.05 1016.53 1017.02 1017.51 1017.98 1018.41
Thickness
5731 5728 5726 5720 5719 5718 5718 5718 5721 5720 5721 5722 5724 5726 5728 5729 5730 5727 5725 5727 5729 5731 5733 5736 5739 5742 5744 5747 5749 5751 5753 5754 5755 5756 5756 5756 5754 5754 5755 5756 5759 5761 5761
5729 5725 5724 5718 5717 5717 5718 5717 5718 5715 5716 5716 5717 5717 5720 5723 5724 5724 5722 5722 5722 5724 5727 5731 5734 5736 5739 5743 5745 5747 5749 5750 5751 5753 5754 5754 5753 5752 5752 5754 5756 5758 5758
5727 5724 5722 5719 5717 5716 5716 5715 5715 5713 5711 5710 5711 5713 5714 5716 5718 5718 5719 5719 5720 5719 5721 5724 5727 5731 5734 5738 5740 5743 5745 5747 5748 5750 5752 5752 5752 5751 5751 5752 5753 5755 5756
5726 5723 5720 5719 5717 5716 5714 5711 5711 5710 5708 5708 5709 5710 5710 5710 5713 5714 5716 5716 5715 5717 5717 5717 5720 5724 5728 5732 5736 5740 5741 5743 5745 5747 5748 5748 5749 5750 5750 5750 5750 5752 5753
5725 5720 5718 5716 5714 5713 5712 5709 5709 5708 5706 5705 5705 5704 5707 5707 5707 5709 5711 5711 5711 5713 5715 5714 5715 5717 5721 5726 5731 5733 5736 5739 5741 5743 5744 5745 5747 5748 5748 5748 5749 5750 5751
5724 5719 5714 5713 5712 5709 5707 5707 5705 5704 5703 5703 5704 5701 5702 5704 5704 5704 5704 5705 5707 5708 5709 5711 5714 5714 5716 5720 5723 5726 5730 5734 5736 5739 5740 5742 5744 5745 5747 5748 5748 5748 5748
5720 5714 5711 5711 5709 5707 5705 5705 5703 5700 5699 5703 5700 5696 5697 5701 5701 5699 5700 5702 5701 5702 5705 5707 5709 5712 5714 5714 5715 5718 5722 5727 5731 5734 5737 5738 5741 5743 5746 5747 5746 5745 5746
5717 5712 5707 5706 5706 5704 5703 5703 5702 5697 5698 5699 5699 5694 5691 5692 5693 5696 5696 5696 5700 5699 5702 5704 5706 5708 5710 5712 5710 5713 5716 5721 5726 5730 5732 5734 5737 5741 5744 5745 5745 5745 5745
5714 5709 5705 5702 5703 5704 5702 5702 5703 5699 5695 5697 5702 5699 5694 5693 5692 5694 5696 5696 5695 5697 5700 5701 5704 5704 5706 5707 5708 5707 5710 5714 5719 5724 5726 5728 5732 5737 5740 5742 5743 5743 5744
5709 5706 5702 5699 5699 5702 5703 5702 5704 5702 5699 5695 5697 5701 5705 5702 5696 5691 5692 5696 5695 5695 5697 5697 5699 5701 5702 5703 5701 5701 5704 5708 5712 5716 5720 5723 5727 5731 5735 5737 5740 5741 5742
5707 5703 5700 5698 5697 5699 5702 5703 5703 5702 5702 5698 5696 5695 5697 5697 5704 5699 5692 5692 5692 5694 5695 5695 5695 5698 5698 5699 5699 5697 5699 5702 5705 5708 5711 5715 5719 5724 5728 5732 5734 5736 5737
5703 5702 5699 5696 5695 5695 5696 5698 5700 5699 5700 5699 5698 5697 5696 5695 5696 5699 5697 5693 5693 5695 5694 5693 5694 5694 5694 5696 5695 5694 5694 5696 5698 5701 5703 5706 5711 5715 5719 5724 5727 5728 5730
5696 5697 5696 5694 5693 5690 5689 5690 5691 5693 5695 5695 5696 5698 5699 5699 5701 5700 5699 5697 5695 5695 5694 5693 5694 5692 5692 5694 5692 5690 5690 5690 5693 5695 5696 5699 5703 5707 5710 5714 5717 5720 5722
5692 5691 5690 5689 5687 5685 5683 5683 5683 5684 5688 5691 5693 5695 5694 5696 5698 5698 5697 5695 5691 5693 5693 5695 5694 5692 5691 5691 5689 5687 5688 5686 5687 5688 5690 5692 5696 5699 5702 5705 5708 5711 5714
5688 5686 5684 5682 5680 5679 5678 5678 5678 5677 5681 5685 5688 5691 5690 5692 5692 5694 5696 5695 5690 5686 5688 5693 5692 5691 5689 5688 5684 5687 5688 5682 5682 5683 5685 5687 5689 5692 5694 5697 5701 5703 5705
5686 5682 5679 5676 5674 5673 5672 5672 5671 5671 5672 5676 5681 5685 5686 5688 5690 5692 5692 5694 5695 5691 5688 5693 5691 5689 5687 5685 5681 5683 5683 5679 5679 5679 5681 5682 5683 5685 5687 5690 5693 5695 5697
5682 5679 5676 5675 5672 5669 5666 5664 5663 5663 5663 5666 5671 5676 5680 5684 5686 5688 5690 5691 5692 5692 5688 5691 5692 5690 5686 5684 5679 5680 5679 5679 5679 5676 5676 5677 5678 5680 5681 5683 5685 5687 5689
5681 5677 5674 5672 5670 5667 5663 5660 5658 5658 5658 5660 5663 5667 5672 5678 5682 5686 5686 5688 5689 5690 5688 5685 5683 5682 5684 5683 5679 5677 5677 5677 5677 5672 5672 5672 5672 5674 5676 5677 5678 5679 5681
5680 5677 5674 5671 5669 5667 5663 5660 5657 5656 5655 5654 5656 5659 5665 5672 5676 5680 5682 5685 5686 5687 5688 5683 5679 5675 5677 5678 5675 5674 5674 5673 5673 5669 5668 5667 5668 5669 5670 5671 5672 5672 5673
5677 5677 5675 5672 5670 5667 5664 5660 5657 5655 5654 5654 5655 5656 5659 5665 5672 5678 5680 5683 5683 5682 5683 5680 5677 5671 5670 5671 5671 5669 5670 5669 5669 5668 5665 5665 5663 5663 5664 5665 5665 5666 5666
5673 5674 5673 5671 5669 5667 5666 5664 5661 5658 5657 5656 5657 5657 5658 5661 5667 5671 5674 5679 5679 5677 5677 5677 5675 5671 5668 5664 5667 5668 5668 5668 5667 5665 5664 5663 5662 5664 5662 5660 5660 5660 5659
5668 5667 5666 5665 5664 5664 5662 5659 5660 5661 5661 5660 5659 5658 5658 5659 5661 5662 5665 5668 5672 5674 5674 5673 5673 5672 5670 5667 5666 5665 5664 5664 5663 5664 5662 5663 5661 5663 5662 5662 5657 5655 5653
5663 5661 5659 5659 5659 5659 5656 5654 5652 5655 5658 5660 5661 5661 5661 5660 5659 5663 5664 5663 5666 5667 5669 5672 5670 5673 5674 5672 5666 5662 5663 5664 5665 5665 5659 5659 5657 5659 5659 5656 5652 5650 5647
5658 5655 5653 5653 5652 5652 5649 5648 5647 5649 5654 5657 5658 5659 5659 5659 5659 5661 5663 5665 5668 5669 5667 5666 5669 5671 5670 5670 5666 5666 5666 5664 5665 5657 5656 5657 5654 5656 5655 5653 5647 5646 5643
5651 5649 5647 5645 5643 5643 5641 5641 5641 5647 5650 5653 5655 5657 5658 5659 5658 5655 5658 5660 5660 5661 5660 5658 5660 5660 5659 5660 5661 5662 5661 5657 5654 5652 5652 5655 5654 5652 5651 5649 5646 5642 5640
5643 5641 5639 5639 5638 5636 5633 5633 5633 5641 5645 5649 5650 5652 5648 5651 5649 5647 5650 5652 5651 5651 5649 5649 5649 5649 5650 5651 5652 5655 5655 5653 5654 5652 5650 5651 5651 5648 5646 5646 5644 5640 5637